Location: Complexul Astronomic Baia Mare
(47.6577°N, 23.5639°E)
Time: 03:17:46
(UTC+03:00)

ISS - Pass Details

Date: 25 May 2017
Orbit: 401 x 408 km, 51.6° (Epoch: 25 June)

Event Time Altitude Azimuth Distance (km) Brightness Sun altitude
Rises 00:25:40 0° 265° (W) 2,335 0.1 -20.2°
Reaches altitude 10° 00:27:48 10° 271° (W) 1,474 -0.8 -20.3°
Maximum altitude 00:31:01 48° 347° (NNW) 541 -2.8 -20.4°
Drops below altitude 10° 00:34:14 10° 64° (ENE) 1,473 -0.8 -20.6°
Sets 00:36:22 0° 70° (ENE) 2,333 0.1 -20.6°
